Date String (YYYY-MM-DD hh:mm:ss) UTC,Instrument flags,Ambient pressure (hPa),Sample flow (lpm),Bypass flow (lpm),Sample temperature (°C),Ambient temperature (°C),ASC tube jacket temperature (°C),LED temperature (°C),Box temperature (°C),Sample RH (%),Span deviation,Mass concentration (μg/m³),Mass concentration (μg/m³),Mass concentration (μg/m³)
DateTimeUTC,F1_M11,P_M11,Q1_M11,Q2_M11,T1_M11,T2_M11,T3_M11,T4_M11,T5_M11,U1_M11,ZSPAN_M11,X0_M11,X2_M11,X1_M11
2022-12-03 07:00:00,,0831.1,5.00,0.00,20.7,20.9,00.0,29.4,22.4,07.9,0000.0,0012.23,0002.60,0001.59
2022-12-03 07:01:00,,0831.0,4.99,0.00,20.8,21.3,00.0,29.5,22.6,07.8,0000.0,0011.75,0002.66,0001.60
2022-12-03 07:02:00,,0831.0,4.98,0.00,20.8,20.3,00.0,29.6,22.4,07.8,0000.0,0011.92,0002.77,0001.61
2022-12-03 07:03:00,,0831.0,5.00,0.00,20.7,19.5,00.0,29.6,22.2,07.8,0000.0,0012.72,0002.81,0001.65
2022-12-03 07:04:00,,0831.1,5.00,0.00,20.6,18.8,00.0,29.6,21.9,07.9,0000.0,0012.23,0002.88,0001.67
2022-12-03 07:05:00,,0831.0,5.00,0.00,20.5,18.3,00.0,29.6,21.7,08.0,0000.0,0011.00,0002.88,0001.65
2022-12-03 07:06:00,,0831.0,5.00,0.00,20.4,18.2,00.0,29.5,21.7,08.1,0000.0,0010.78,0002.89,0001.64
2022-12-03 07:07:00,,0831.1,5.02,0.00,20.5,19.5,00.0,29.4,21.9,08.0,0000.0,0010.30,0002.87,0001.63
2022-12-03 07:08:00,,0831.1,5.00,0.00,20.6,20.9,00.0,29.4,22.3,07.9,0000.0,0010.17,0002.83,0001.63
2022-12-03 07:09:00,,0831.0,4.99,0.00,20.7,21.2,00.0,29.4,22.5,07.9,0000.0,0009.36,0002.90,0001.63
2022-12-03 07:10:00,,0831.1,4.99,0.00,20.7,20.3,00.0,29.5,22.4,07.8,0000.0,0009.21,0002.92,0001.64
2022-12-03 07:11:00,,0831.2,5.00,0.00,20.6,19.5,00.0,29.6,22.1,07.9,0000.0,0009.30,0002.91,0001.65
2022-12-03 07:12:00,,0831.2,5.00,0.00,20.6,19.0,00.0,29.6,21.9,08.0,0000.0,0009.21,0002.88,0001.64
2022-12-03 07:13:00,,0831.1,5.00,0.00,20.5,18.5,00.0,29.6,21.8,08.0,0000.0,0009.25,0002.85,0001.65
2022-12-03 07:14:00,,0831.2,5.01,0.00,20.4,18.4,00.0,29.5,21.7,08.0,0000.0,0008.75,0002.85,0001.65
2022-12-03 07:15:00,,0831.2,5.00,0.00,20.5,19.7,00.0,29.4,22.0,08.0,0000.0,0008.67,0002.79,0001.64
2022-12-03 07:16:00,,0831.2,5.00,0.00,20.6,20.9,00.0,29.4,22.4,08.0,0000.0,0008.67,0002.80,0001.66
2022-12-03 07:17:00,,0831.2,4.99,0.00,20.7,21.3,00.0,29.4,22.6,08.0,0000.0,0008.83,0002.87,0001.66
2022-12-03 07:18:00,,0831.2,4.99,0.00,20.8,20.6,00.0,29.5,22.4,07.9,0000.0,0009.23,0002.93,0001.69
2022-12-03 07:19:00,,0831.2,5.00,0.00,20.7,19.8,00.0,29.6,22.2,07.9,0000.0,0009.45,0003.00,0001.71
2022-12-03 07:20:00,,0831.2,5.00,0.00,20.6,19.1,00.0,29.6,22.0,07.9,0000.0,0009.25,0002.97,0001.73
2022-12-03 07:21:00,,0831.2,5.00,0.00,20.6,18.7,00.0,29.6,21.9,08.0,0000.0,0009.53,0002.95,0001.75
2022-12-03 07:22:00,,0831.2,5.00,0.00,20.5,18.4,00.0,29.6,21.8,08.0,0000.0,0009.81,0002.93,0001.77
2022-12-03 07:23:00,,0831.2,5.02,0.00,20.5,19.0,00.0,29.5,21.9,08.0,0000.0,0009.80,0002.94,0001.79
2022-12-03 07:24:00,,0831.2,5.00,0.00,20.6,20.4,00.0,29.4,22.3,07.9,0000.0,0009.74,0002.96,0001.79
2022-12-03 07:25:00,,0831.2,4.99,0.00,20.7,21.5,00.0,29.4,22.6,07.9,0000.0,0009.98,0003.09,0001.79
2022-12-03 07:26:00,,0831.2,4.98,0.00,20.8,21.1,00.0,29.5,22.6,07.8,0000.0,0009.90,0003.10,0001.79
2022-12-03 07:27:00,,0831.2,5.01,0.00,20.8,20.3,00.0,29.6,22.4,07.8,0000.0,0010.69,0003.08,0001.80
2022-12-03 07:28:00,,0831.2,5.00,0.00,20.7,19.6,00.0,29.6,22.2,07.8,0000.0,0010.93,0003.10,0001.82
2022-12-03 07:29:00,,0831.2,5.00,0.00,20.7,19.1,00.0,29.6,22.1,07.9,0000.0,0011.20,0003.09,0001.83
2022-12-03 07:30:00,,0831.2,5.02,0.00,20.6,18.7,00.0,29.6,22.0,07.9,0000.0,0011.10,0003.06,0001.83
2022-12-03 07:31:00,,0831.2,5.00,0.00,20.5,18.5,00.0,29.6,21.9,07.9,0000.0,0011.46,0003.06,0001.82
2022-12-03 07:32:00,,0831.2,5.00,0.00,20.5,19.0,00.0,29.5,22.0,07.9,0000.0,0011.33,0003.05,0001.83
2022-12-03 07:33:00,,0831.2,5.00,0.00,20.6,20.5,00.0,29.5,22.3,07.9,0000.0,0010.26,0003.05,0001.82
2022-12-03 07:34:00,,0831.2,4.99,0.00,20.8,21.6,00.0,29.5,22.7,07.8,0000.0,0010.45,0003.08,0001.81
2022-12-03 07:35:00,,0831.2,4.99,0.00,20.9,21.3,00.0,29.5,22.7,07.7,0000.0,0011.17,0003.12,0001.83
2022-12-03 07:36:00,,0831.2,5.00,0.00,20.9,20.5,00.0,29.6,22.5,07.7,0000.0,0011.39,0003.02,0001.85
2022-12-03 07:37:00,,0831.0,5.00,0.00,20.8,19.8,00.0,29.6,22.3,07.7,0000.0,0012.15,0003.03,0001.86
2022-12-03 07:38:00,,0831.0,4.99,0.00,20.7,19.2,00.0,29.7,22.2,07.7,0000.0,0011.30,0003.06,0001.87
2022-12-03 07:39:00,,0831.1,5.00,0.00,20.6,18.8,00.0,29.7,22.0,07.7,0000.0,0010.82,0003.02,0001.85
2022-12-03 07:40:00,,0831.0,5.00,0.00,20.6,18.4,00.0,29.6,21.9,07.8,0000.0,0010.94,0002.97,0001.84
2022-12-03 07:41:00,,0831.1,5.02,0.00,20.5,18.7,00.0,29.6,21.9,07.8,0000.0,0010.75,0002.98,0001.82
2022-12-03 07:42:00,,0831.0,5.00,0.00,20.6,20.1,00.0,29.5,22.2,07.8,0000.0,0010.40,0002.99,0001.81
2022-12-03 07:43:00,,0831.0,5.00,0.00,20.8,21.4,00.0,29.5,22.6,07.7,0000.0,0010.65,0003.00,0001.79
2022-12-03 07:44:00,,0831.1,4.98,0.00,20.9,21.2,00.0,29.6,22.7,07.6,0000.0,0011.88,0002.98,0001.78
2022-12-03 07:45:00,,0831.1,5.01,0.00,20.8,20.5,00.0,29.6,22.5,07.6,0000.0,0012.78,0002.99,0001.77
2022-12-03 07:46:00,,0831.0,5.00,0.00,20.8,19.7,00.0,29.7,22.3,07.6,0000.0,0012.49,0002.99,0001.75
2022-12-03 07:47:00,,0831.0,5.01,0.00,20.7,19.1,00.0,29.7,22.1,07.6,0000.0,0012.15,0002.94,0001.74
2022-12-03 07:48:00,,0831.0,5.00,0.00,20.6,18.7,00.0,29.7,22.0,07.6,0000.0,0011.26,0002.96,0001.74
2022-12-03 07:49:00,,0831.1,4.99,0.00,20.6,18.4,00.0,29.6,21.9,07.7,0000.0,0011.19,0002.99,0001.74
2022-12-03 07:50:00,,0831.1,5.02,0.00,20.5,18.6,00.0,29.6,21.9,07.7,0000.0,0011.27,0003.00,0001.72
2022-12-03 07:51:00,,0831.0,5.00,0.00,20.6,20.1,00.0,29.5,22.2,07.7,0000.0,0010.67,0003.01,0001.71
2022-12-03 07:52:00,,0831.0,5.00,0.00,20.8,21.3,00.0,29.5,22.6,07.6,0000.0,0010.50,0003.03,0001.70
2022-12-03 07:53:00,,0831.1,4.99,0.00,20.9,21.3,00.0,29.5,22.7,07.6,0000.0,0010.46,0002.99,0001.71
2022-12-03 07:54:00,,0831.2,4.99,0.00,20.8,20.6,00.0,29.6,22.5,07.6,0000.0,0010.23,0002.92,0001.72
2022-12-03 07:55:00,,0831.2,5.00,0.00,20.8,19.8,00.0,29.7,22.3,07.6,0000.0,0009.69,0002.99,0001.73
2022-12-03 07:56:00,,0831.0,5.00,0.00,20.7,19.3,00.0,29.7,22.2,07.7,0000.0,0008.81,0003.09,0001.74
2022-12-03 07:57:00,,0831.0,5.00,0.00,20.7,19.0,00.0,29.7,22.1,07.7,0000.0,0008.39,0003.05,0001.75
2022-12-03 07:58:00,,0831.0,5.00,0.00,20.6,18.7,00.0,29.7,22.0,07.6,0000.0,0009.26,0003.06,0001.77
2022-12-03 07:59:00,,0831.0,5.01,0.00,20.6,18.8,00.0,29.6,22.0,07.6,0000.0,0009.30,0003.12,0001.77
